Zanesville, OH

11:36 AM EDT on March 23, 2017 (GMT -0400)
Zanesville Municipal

Weather History for KZZV - June, 2014

Change the Weather History Date:

Friday, June 20, 2014

  Actual Average Record
Temperature  
Mean Temperature 74 °F 70 °F  
Max Temperature 83 °F 82 °F 94 °F (1953)
Min Temperature 65 °F 59 °F 45 °F (1947)
Degree Days  
Heating Degree Days 0 1  
Month to date heating degree days 10 30  
Since 1 June heating degree days 10 30  
Since 1 July heating degree days 5986 5569  
Cooling Degree Days 9 6  
Month to date cooling degree days 96 89  
Year to date cooling degree days 178 143  
Since 1 June cooling degree days 96 89  
Growing Degree Days 24 (Base 50)    
Moisture  
Dew Point 67 °F    
Average Humidity 76    
Maximum Humidity 93    
Minimum Humidity 58    
Precipitation  
Precipitation 0.71 in 0.14 in 2.01 in (2015)
Month to date precipitation 4.69 2.66  
Year to date precipitation 19.02 18.12  
Sea Level Pressure  
Sea Level Pressure 29.98 in    
Wind  
Wind Speed 4 mph (SE)    
Max Wind Speed 9 mph    
Max Gust Speed 13 mph    
Visibility 8 miles    
Events Rain , Thunderstorm    
T = Trace of Precipitation, MM = Missing Value Source: NWS Daily Summary

Daily Weather History Graph

Daily Weather History Graph

Search for Another Location

Airport or City:

Trip Planner

Search our weather history database for the weather conditions in past years. The results will help you decide how hot, cold, wet, or windy it might be!

Date:

Astronomy

Jun. 20, 2014 Rise Set
Actual Time 5:58 AM EDT 8:59 PM EDT
Civil Twilight 5:26 AM EDT 9:32 PM EDT
Nautical Twilight 4:44 AM EDT 10:13 PM EDT
Astronomical Twilight 3:55 AM EDT 11:02 PM EDT
Moon 1:36 AM EDT (6/20) 2:33 PM EDT (6/20)
Length of Visible Light 16h 06m
Length of Day
15h 00m
Last Quarter, 40% of the Moon is Illuminated
Jun 20
Last Quarter
Jun 27
New
Jul 5
First Quarter
Jul 12
Full
Jul 18
Last Quarter

Hourly Weather History & Observations

Time (EDT) Temp. Heat Index Dew Point Humidity Pressure Visibility Wind Dir Wind Speed Gust Speed Precip Events Conditions
12:53 AM 68.0 °F - 66.0 °F 93% 30.08 in 5.0 mi Calm Calm - N/A   Overcast
1:53 AM 69.1 °F - 64.9 °F 87% 30.05 in 8.0 mi ENE 3.5 mph - N/A   Mostly Cloudy
2:53 AM 68.0 °F - 64.9 °F 90% 30.05 in 7.0 mi Calm Calm - N/A   Overcast
3:53 AM 66.9 °F - 64.9 °F 93% 30.04 in 5.0 mi Calm Calm - N/A   Scattered Clouds
4:53 AM 66.9 °F - 64.0 °F 90% 30.04 in 10.0 mi NE 3.5 mph - N/A   Overcast
5:53 AM 66.0 °F - 63.0 °F 90% 30.04 in 9.0 mi ENE 3.5 mph - N/A   Clear
6:53 AM 66.9 °F - 64.0 °F 90% 30.05 in 9.0 mi Calm Calm - N/A   Overcast
7:53 AM 66.9 °F - 64.0 °F 90% 30.05 in 9.0 mi Calm Calm - N/A   Overcast
8:53 AM 71.1 °F - 66.0 °F 84% 30.04 in 10.0 mi East 6.9 mph - N/A   Scattered Clouds
9:53 AM 73.9 °F - 66.0 °F 76% 30.04 in 10.0 mi East 3.5 mph - N/A   Scattered Clouds
10:36 AM 75.9 °F - 66.0 °F 71% 30.06 in 10.0 mi SE 4.6 mph - N/A   Mostly Cloudy
10:53 AM 75.9 °F - 66.0 °F 71% 30.03 in 10.0 mi SE 5.8 mph - N/A   Overcast
11:09 AM 77.0 °F - 66.9 °F 71% 30.05 in 10.0 mi Variable 5.8 mph - N/A   Mostly Cloudy
11:53 AM 79.0 °F - 66.9 °F 66% 30.02 in 10.0 mi Variable 3.5 mph - N/A   Scattered Clouds
12:53 PM 80.1 °F 82.3 °F 66.9 °F 64% 30.00 in 10.0 mi South 5.8 mph - N/A   Scattered Clouds
1:53 PM 82.0 °F 84.5 °F 66.9 °F 60% 29.97 in 10.0 mi Calm Calm - N/A   Mostly Cloudy
2:53 PM 81.0 °F 83.3 °F 66.9 °F 62% 29.94 in 10.0 mi SE 6.9 mph - N/A   Mostly Cloudy
3:12 PM 80.1 °F 82.7 °F 68.0 °F 67% 29.96 in 1.5 mi Variable 4.6 mph - 0.12 in Rain Heavy Rain
3:44 PM 73.9 °F - 68.0 °F 82% 29.97 in 6.0 mi SSE 5.8 mph - 0.62 in Rain , Thunderstorm Light Rain
4:07 PM 72.0 °F - 66.9 °F 84% 29.97 in 7.0 mi SE 5.8 mph - 0.01 in Rain , Thunderstorm Light Rain
4:19 PM 72.0 °F - 68.0 °F 87% 29.96 in 5.0 mi SE 6.9 mph - 0.02 in Rain Light Rain
4:33 PM 71.1 °F - 68.0 °F 90% 29.97 in 7.0 mi SE 5.8 mph - 0.03 in Rain , Thunderstorm Light Rain
4:53 PM 71.1 °F - 68.0 °F 90% 29.96 in 10.0 mi SSE 5.8 mph - 0.03 in   Mostly Cloudy
5:20 PM 71.1 °F - 68.0 °F 90% 29.96 in 4.0 mi SE 6.9 mph - 0.03 in Rain , Thunderstorm Thunderstorms and Rain
5:35 PM 71.1 °F - 68.0 °F 90% 29.96 in 8.0 mi ESE 6.9 mph - 0.04 in Rain , Thunderstorm Light Rain
5:53 PM 71.1 °F - 68.0 °F 90% 29.94 in 9.0 mi SE 5.8 mph - 0.04 in Thunderstorm Mostly Cloudy
6:16 PM 71.1 °F - 68.0 °F 90% 29.95 in 8.0 mi SSE 5.8 mph - N/A   Mostly Cloudy
6:29 PM 72.0 °F - 69.1 °F 91% 29.94 in 6.0 mi SSE 5.8 mph - N/A   Overcast
6:53 PM 71.1 °F - 68.0 °F 90% 29.92 in 8.0 mi Variable 4.6 mph - N/A   Scattered Clouds
7:43 PM 71.1 °F - 68.0 °F 90% 29.93 in 8.0 mi SSE 3.5 mph - N/A   Mostly Cloudy
7:53 PM 71.1 °F - 68.0 °F 90% 29.92 in 8.0 mi SSE 5.8 mph - N/A   Mostly Cloudy
8:53 PM 70.0 °F - 66.9 °F 90% 29.91 in 8.0 mi South 6.9 mph - N/A   Mostly Cloudy
9:15 PM 70.0 °F - 66.9 °F 90% 29.93 in 9.0 mi South 4.6 mph - N/A   Mostly Cloudy
9:38 PM 70.0 °F - 66.9 °F 90% 29.94 in 9.0 mi Calm Calm - 0.01 in Rain Light Rain
9:53 PM 70.0 °F - 66.9 °F 90% 29.93 in 10.0 mi Calm Calm - 0.01 in   Mostly Cloudy
10:08 PM 69.1 °F - 66.9 °F 93% 29.94 in 9.0 mi SW 4.6 mph - N/A   Scattered Clouds
10:15 PM 69.1 °F - 66.9 °F 93% 29.94 in 10.0 mi Calm Calm - N/A   Mostly Cloudy
10:53 PM 69.1 °F - 66.9 °F 93% 29.92 in 9.0 mi SSE 4.6 mph - N/A   Overcast
11:03 PM 69.1 °F - 66.9 °F 93% 29.93 in 9.0 mi South 3.5 mph - N/A   Overcast
11:53 PM 69.1 °F - 66.9 °F 93% 29.91 in 8.0 mi Calm Calm - N/A   Overcast